www.pogodaiklimat.ru

Погода и климат >> Архив погоды >> Германия >> Лейпциг


АРХИВ ПОГОДЫ в Лейпциге

Время (UTC), дата Ветер
(напр.,м/с)
 
Видим.   Явления Облачность Т
(С)
Тd
(С)
f
(%)
Тe
(С)
Тes
(С)
Комфортность P
(гПа)
Po
(гПа)
Тmin
(С)
Tmax
(С)
R
(мм)
R24
(мм)
S
(см)
22 12.06 З 4 70 км в посл. час ливневой дождь 9/1 1200 м
[Cb calv Ac As]
+15.1 +12.5 84 +14 +14 тепло 1013.4 997.4
23 12.06 ЮЗ 5 60 км осадки на расстоянии 9/3 1200 м
[Cb calv Ac As]
+15.3 +12.6 84 +14 +14 тепло 1014.3 998.3
00 13.06 штиль 0 50 км слаб. ливневой дождь 10/4 1000 м
[Cb calv Ac As]
+15.0 +13.3 90 +15 +15 тепло 1013.5 997.5 0.0
01 13.06 ЮЗ 3 40 км слаб. ливневой дождь 10/4 1050 м
[Cb calv Ac As]
+14.9 +13.0 88 +14 +14 тепло 1014.2 998.2
02 13.06 ЮЗ 5 40 км слаб. ливневой дождь 9/4 300 м
[Cb calv Ac As]
+14.9 +13.5 91 +13 +13 по сезону 1014.2 998.2
03 13.06 С 1 40 км в посл. час ливневой дождь 9/3 900 м
[Cb calv Ac As]
+14.7 +13.2 91 +15 +15 тепло 1013.4 997.4 0.3
04 13.06 ЮЗ 1 50 км осадки на расстоянии 9/1 900 м
[Cb calv Ac As]
+14.9 +12.7 87 +15 +16 тепло 1014.0 998.0
05 13.06 Ю 3 50 км осадки на расстоянии 9/1 900 м
[Cb calv Ac As]
+15.4 +13.6 89 +15 +15 тепло 1015.3 999.3
06 13.06 ЮВ 2 50 км в посл. час ливневой дождь 5/0
[Ac As]
+16.3 +13.8 85 +16 +19 тепло 1015.5 999.5 +14.5 +18.5 0.3
07 13.06 Ю 2 50 км 5/0
[Ac As]
+18.0 +12.3 69 +19 +23 тепло 1015.6 999.7
08 13.06 Ю 2 55 км 3/1 750 м
[Cu hum Ac trans]
+19.8 +11.9 60 +22 +30 комфорт 1015.3 999.5
09 13.06 ЮВ 2 60 км 1/1 1000 м
[Cu hum Ac trans]
+20.8 +10.2 51 +23 +36 комфорт 1014.9 999.1
10 13.06 Ю 2 60 км 1/1 1200 м
[Cu hum Ac trans]
+21.9 +9.9 46 +23 +38 комфорт 1014.8 999.1
11 13.06 Ю 3 60 км 3/1 1500 м
[Cu hum Ac trans]
+22.8 +9.0 41 +24 +35 комфорт 1014.8 999.1
12 13.06 Ю 3 60 км 5/1 1500 м
[Cu med, cong Ac cast]
+23.6 +9.7 41 +25 +33 комфорт 1014.6 999.0
13 13.06 ЮВ 3 60 км 4/1 1500 м
[Cu med, cong Ac trans]
+23.8 +10.1 42 +25 +34 комфорт 1014.3 998.7
14 13.06 С 2 60 км 6/1 1500 м
[Cu med, cong Ac und]
+24.4 +7.5 34 +25 +31 комфорт 1014.2 998.6
15 13.06 ЮВ 4 60 км 4/1 1500 м
[Cu med, cong Ac trans]
+24.3 +10.3 41 +25 +30 комфорт 1013.9 998.3
16 13.06 ЮВ 5 60 км 3/1 1500 м
[Cu med, cong Ac trans]
+24.1 +10.8 43 +25 +28 комфорт 1013.7 998.1
17 13.06 В 5 60 км 1/1 1500 м
[Cu med, cong Ac trans]
+23.7 +9.9 42 +25 +26 комфорт 1013.6 998.0
18 13.06 В 4 60 км 1/1 1500 м
[Cu med, cong]
+23.0 +10.5 45 +25 +25 комфорт 1013.6 998.0 +16.3 +25.1
19 13.06 ЮВ 2 60 км 1/1 1500 м
[Cu med, cong]
+20.2 +12.1 60 +23 +23 комфорт 1014.2 998.4
20 13.06 ЮВ 2 60 км 3/3 1500 м
[Cu med, cong]
+19.1 +12.0 63 +21 +21 комфорт 1015.0 999.2
21 13.06 З 4 60 км 3/3 1500 м
[Cu med, cong]
+18.9 +12.3 66 +20 +20 тепло 1016.2 1000.3
22 13.06 СЗ 1 60 км 3/3 1500 м
[Cu med, cong]
+17.8 +11.3 66 +19 +19 тепло 1016.5 1000.6
23 13.06 В 1 60 км 1/1 1500 м
[Cu hum]
+17.1 +11.5 70 +18 +18 тепло 1017.1 1001.1
00 14.06 штиль 0 60 км 1/1 1500 м
[Cu hum]
+15.4 +11.5 78 +15 +15 тепло 1017.3 1001.2
01 14.06 З 1-2
{2}
60 км ясно +14.8 +11.5 81 +15 +15 тепло 1017.2 1001.1
02 14.06 ЮВ 1-2
{3}
60 км ясно +14.3 +11.2 82 +15 +15 тепло 1017.2 1001.1
03 14.06 Ю 2 50 км ясно +13.9 +11.2 84 +13 +13 по сезону 1017.9 1001.7
04 14.06 ЮВ 3-5
{5}
50 км ясно +15.0 +12.1 83 +14 +15 тепло 1018.0 1001.9
05 14.06 Ю 2-3
{5}
55 км ясно +16.9 +12.5 75 +17 +19 тепло 1018.4 1002.4
06 14.06 ЮВ 3 55 км ясно +19.5 +13.1 66 +21 +25 комфорт 1018.4 1002.5 +13.2 +23.0
07 14.06 В 5 60 км 1/0
[Ci fib]
+22.0 +13.3 58 +25 +29 комфорт 1018.1 1002.4
08 14.06 ЮВ 5 60 км 1/0
[Ci sp]
+24.0 +14.8 56 +27 +32 жарко 1018.2 1002.6
09 14.06 В 6 60 км 1/0
[Ci fib]
+26.1 +11.6 40 +27 +33 жарко 1017.8 1002.3
10 14.06 ЮВ 5 60 км 4/0
[Ci]
+27.0 +9.8 34 +27 +35 жарко 1017.9 1002.4
11 14.06 В 6 60 км 6/0
[Ac trans Ci]
+28.1 +8.4 29 +28 +34 жарко 1017.2 1001.8
12 14.06 ЮВ 6 60 км 8/1 1500 м
[Cu hum Ac trans Ci]
+28.1 +9.8 32 +28 +32 жарко 1017.0 1001.6
13 14.06 В 6 60 км 9/1 1500 м
[Cu hum Ac und Cs]
+27.4 +11.0 36 +28 +31 жарко 1016.4 1001.0
14 14.06 В 5 60 км 8/1 1500 м
[Cu hum Ac trans Cs]
+28.1 +12.8 39 +30 +33 жарко 1016.1 1000.7
15 14.06 В 6 60 км 9/0
[Ac trans Cs]
+27.8 +13.3 41 +30 +32 жарко 1015.3 999.9
16 14.06 В 7 55 км 8/0
[Ac trans Cs]
+28.2 +14.2 42 +30 +31 жарко 1014.4 999.1
17 14.06 В 4 55 км 10/0
[Ac trans Cs]
+26.9 +14.5 47 +29 +31 жарко 1014.5 999.1
18 14.06 В 3 50 км 10/0
[Ac As Cs]
+25.4 +14.8 52 +28 +28 жарко 1014.2 998.7 +19.5 +29.0
19 14.06 СВ 3 50 км 10/3 2000 м
[Cu med, cong Ac As]
+24.1 +15.5 59 +27 +27 жарко 1014.0 998.5
20 14.06 В 3 50 км 10/0
[Ac As]
+23.6 +15.6 61 +27 +27 жарко 1014.1 998.5
21 14.06 В 4 50 км 10/0
[Ac As]
+22.9 +16.0 65 +27 +27 душно 1013.7 998.1
22 14.06 В 3 50 км 9/0
[Ac As]
+22.7 +15.9 65 +27 +27 душно 1013.0 997.4
23 14.06 В 4 45 км 9/0
[Ac As]
+22.1 +15.4 66 +26 +26 душно 1012.2 996.6
00 15.06 В 5 45 км 10/1 2000 м
[Cu med, cong Ac As]
+22.1 +14.7 63 +25 +25 комфорт 1011.6 996.0
01 15.06 В 7 40 км в посл. час ливневой дождь 8/5 1500 м
[Cb cap Ac As Ci sp]
+22.0 +15.5 67 +26 +26 душно 1009.7 994.1
02 15.06 В 5 35 км 8/3 1500 м
[Cb cap Ac As Ci sp]
+21.4 +17.2 77 +25 +25 комфорт 1008.8 993.2
03 15.06 В 9 30 км {ливн. осадки} 8/0
[Ac und Ci sp]
+23.5 +18.0 71 +28 +28 душно 1008.5 993.0 0.0
04 15.06 В 8 30 км 6/0
[Ac As Ci sp]
+22.1 +17.4 75 +27 +27 душно 1008.3 992.8
05 15.06 В 7 25 км 9/0
[Ac und]
+21.9 +17.7 77 +26 +27 душно 1008.2 992.7
06 15.06 В 6 25 км {ливн. осадки} 9/0
[Ac As]
+22.2 +18.1 78 +27 +27 душно 1007.9 992.4 +21.1 +25.5 0.0
07 15.06 ЮВ 5 25 км 9/0
[Ac As Ci fib]
+23.4 +18.7 75 +30 +31 очень
душно
1008.3 992.8
08 15.06 ЮВ 5 25 км 4/0
[Ac As Ci fib]
+26.2 +18.6 63 +31 +35 очень
душно
1008.1 992.8
09 15.06 ЮЗ 6 35 км 6/0
[Ac As]
+28.1 +18.7 57 +33 +36 очень
душно
1008.3 993.1
10 15.06 ЮЗ 6 40 км 8/0
[Ac und]
+28.7 +15.3 44 +31 +34 жарко 1008.5 993.3
11 15.06 З 8 45 км 5/0
[Ac As Ci fib]
+28.0 +15.4 46 +31 +33 душно 1009.3 994.0
12 15.06 З 10 45 км 4/1 1500 м
[Cu med, cong Ac trans]
+28.1 +14.3 43 +30 +31 жарко 1010.2 994.9
13 15.06 З 11 50 км 6/1 1500 м
[Cu hum Ac cast Ci]
+28.0 +13.9 42 +30 +30 жарко 1010.7 995.4
14 15.06 З 10 60 км 5/1 1500 м
[Cu hum Ac cuf Ci]
+28.0 +13.2 40 +30 +30 жарко 1011.1 995.8
15 15.06 З 9 60 км 5/1 1500 м
[Cu hum Ac cuf Ci fib]
+27.5 +13.5 42 +29 +30 жарко 1011.6 996.3
16 15.06 З 9 65 км 6/1 1500 м
[Cu hum Ci]
+27.0 +13.3 43 +29 +29 жарко 1011.6 996.2
17 15.06 З 8 70 км 8/3 1500 м
[Cu med, cong Ci sp]
+25.3 +12.1 44 +27 +27 жарко 1011.8 996.3
18 15.06 З 6 70 км 8/3 1500 м
[Cu med, cong Ac und Ci sp]
+25.0 +13.4 49 +27 +27 жарко 1012.6 997.1 +22.2 +29.7
19 15.06 СЗ 5 70 км 9/4 1230 м
[Cu med, cong Ac trans Ci sp]
+22.7 +15.2 63 +27 +27 душно 1013.4 997.8
20 15.06 СЗ 4 70 км 8/4 1320 м
[Cu Sc Ci sp]
+21.2 +13.0 59 +23 +23 комфорт 1014.4 998.7
21 15.06 СЗ 2 70 км 8/3 1500 м
[Sc Ci sp]
+19.7 +13.3 67 +22 +22 комфорт 1015.3 999.5
22 15.06 СЗ 2 60 км 8/3 1500 м
[Sc Ci sp]
+18.4 +13.4 73 +19 +19 тепло 1016.1 1000.2
23 15.06 СЗ 1 60 км 6/1 1500 м
[Sc Ci sp]
+17.1 +13.5 79 +18 +18 тепло 1016.6 1000.6
00 16.06 СЗ 1 60 км 6/0
[Ci sp]
+15.8 +13.0 83 +16 +16 тепло 1017.3 1001.3
01 16.06 СЗ 2 60 км 5/0
[Ci sp]
+15.2 +12.9 86 +15 +15 тепло 1017.6 1001.5
02 16.06 З 2 50 км 5/0
[Ac trans Ci sp]
+13.0 +11.8 92 +12 +12 по сезону 1017.6 1001.4
03 16.06 З 2 50 км 5/0
[Ac und Ci sp]
+13.4 +11.9 91 +13 +13 по сезону 1017.9 1001.7
04 16.06 СЗ 1 45 км 9/0
[Ac und Ci]
+14.1 +12.0 87 +14 +15 тепло 1018.3 1002.1
05 16.06 СЗ 2 45 км 9/0
[Ac As Ci]
+15.2 +12.5 84 +15 +16 тепло 1018.2 1002.1
06 16.06 С 2 45 км 9/0
[Ac und Ci sp]
+16.7 +12.4 76 +17 +19 тепло 1019.3 1003.3 +12.8 +25.0
07 16.06 СЗ 2 45 км 10/0
[As op]
+16.7 +13.0 79 +17 +19 по сезону 1019.9 1003.9
08 16.06 СВ 2 50 км слаб. дождь 10/3 1200 м
[Cu hum As op]
+16.9 +12.9 77 +17 +19 по сезону 1020.0 1004.0
09 16.06 ЮВ 2 50 км в посл. час дождь 10/3 300 м
[Cu Sc As op Cs]
+17.5 +13.4 77 +18 +23 по сезону 1020.8 1004.8 0.0
10 16.06 С 1 50 км 9/1 500 м
[Cu med, cong Ac As]
+18.2 +13.3 73 +20 +26 по сезону 1020.9 1004.9
11 16.06 СЗ 1 50 км 10/3 600 м
[Cu med, cong Ac und]
+19.4 +13.4 68 +22 +26 комфорт 1021.0 1005.1
12 16.06 С 1 50 км {дождь} 9/3 840 м
[Cu Sc Ac As]
+20.8 +13.2 62 +24 +30 комфорт 1020.9 1005.1
13 16.06 З 1 55 км 9/6 1000 м
[Cu Sc Ac As]
+21.2 +11.8 55 +23 +26 комфорт 1021.0 1005.2
14 16.06 З 2 55 км 10/3 1170 м
[Cu Sc Ac As]
+20.9 +11.7 56 +24 +26 комфорт 1021.0 1005.2
15 16.06 З 2 50 км в посл. час дождь 9/1 1170 м
[Cu med, cong Ac As]
+21.0 +12.2 57 +24 +27 комфорт 1020.9 1005.1 0.0
16 16.06 ЮЗ 2 50 км 9/1 1170 м
[Cb calv Ac As]
+21.6 +12.5 56 +24 +26 комфорт 1020.7 1004.9
17 16.06 С 1 50 км 9/6 1260 м
[Cb calv Ac As]
+21.5 +12.2 55 +24 +24 комфорт 1020.8 1005.0
18 16.06 З 2 50 км осадки на расстоянии 9/6 1000 м
[Cb calv Ac und]
+20.3 +12.5 61 +23 +23 комфорт 1021.1 1005.2 +16.6 +22.4 0.0
19 16.06 З 2 50 км осадки на расстоянии 9/4 1230 м
[Cb calv Ac As]
+19.1 +13.5 70 +21 +21 комфорт 1021.3 1005.4
20 16.06 З 2 50 км 9/1 1500 м
[Cu med, cong Ac As]
+18.5 +12.5 68 +20 +20 тепло 1021.9 1005.9
21 16.06 З 2 50 км в посл. час дождь 10/0
[Ac As]
+17.9 +13.0 73 +18 +18 тепло 1022.0 1006.0 0.0
22 16.06 ЮЗ 1 50 км 9/0
[Ac As]
+17.7 +13.0 74 +19 +19 тепло 1021.8 1005.8
23 16.06 Ю 1 50 км 9/0
[Ac As]
+17.3 +13.3 77 +18 +18 тепло 1021.8 1005.8
00 17.06 Ю 1 50 км {дождь} 9/0
[Ac As]
+17.3 +13.6 79 +18 +18 тепло 1022.2 1006.2 0.0
01 17.06 ЮЗ 2 45 км 8/0
[Ac As]
+17.1 +13.4 79 +17 +17 тепло 1022.2 1006.2
02 17.06 ЮЗ 2 40 км 6/0
[Ac As]
+15.8 +13.4 86 +16 +16 тепло 1022.0 1005.9
03 17.06 З 2 25 км 3/0
[Ac As]
+15.1 +13.6 91 +15 +15 тепло 1022.2 1006.0
04 17.06 ЮЗ 1 30 км 6/6 1500 м
[Sc]
+14.8 +13.3 91 +15 +15 тепло 1022.7 1006.5
05 17.06 З 1 30 км 4/4 1500 м
[Sc]
+16.9 +14.5 86 +18 +19 тепло 1022.7 1006.6
06 17.06 З 2 25 км 3/3 2000 м
[Sc]
+18.0 +13.9 77 +19 +21 тепло 1022.8 1006.8 +14.3 +20.2 0.0
07 17.06 В 1 30 км 3/3 750 м
[Cu Sc]
+20.1 +13.9 67 +23 +29 комфорт 1022.8 1006.9
08 17.06 ЮЗ 1 30 км 4/4 700 м
[Cu hum]
+21.0 +12.9 60 +25 +32 комфорт 1022.4 1006.6
09 17.06 ЮВ 1 35 км 5/5 600 м
[Cu med, cong]
+22.2 +12.6 54 +25 +33 комфорт 1022.1 1006.3
10 17.06 В 2 40 км 5/5 1080 м
[Cu med, cong]
+22.3 +12.5 54 +25 +33 комфорт 1021.8 1006.0
11 17.06 В 4 45 км 6/6 1300 м
[Cu med, cong]
+23.1 +12.0 50 +26 +30 жарко 1021.5 1005.8
12 17.06 ЮВ 3 45 км 5/5 1380 м
[Cu med, cong]
+24.1 +11.5 45 +26 +33 жарко 1021.2 1005.5
13 17.06 В 3 45 км 5/5 1500 м
[Cu med, cong]
+25.4 +12.2 44 +27 +33 жарко 1020.7 1005.1
14 17.06 ЮВ 4 50 км 5/5 1500 м
[Cu med, cong]
+24.3 +11.2 44 +26 +30 жарко 1020.4 1004.7
15 17.06 В 4 55 км 4/4 1500 м
[Cu med, cong]
+26.1 +11.2 39 +27 +31 жарко 1019.6 1004.1
16 17.06 ЮВ 4 55 км 3/3 1500 м
[Cu med, cong]
+26.3 +9.8 35 +27 +29 жарко 1019.2 1003.7
17 17.06 В 4 60 км 3/1 1500 м
[Cu med, cong Ci fib]
+25.6 +9.6 36 +26 +28 жарко 1018.9 1003.3
18 17.06 В 4 60 км 1/0
[Ci fib]
+24.6 +11.4 44 +26 +27 жарко 1018.6 1003.0 +18.1 +26.4
19 17.06 В 3 60 км 1/0
[Ci fib]
+23.2 +12.2 50 +26 +26 жарко 1018.6 1002.9
20 17.06 В 2 55 км 1/0
[Ci fib]
+21.7 +12.4 55 +24 +24 комфорт 1018.8 1003.0
21 17.06 В 2 55 км 3/0
[Ci]
+18.8 +12.7 68 +20 +20 тепло 1018.9 1003.0
22 17.06 В 3 50 км 1/0
[Ci fib]
+18.5 +12.3 67 +19 +19 тепло 1018.9 1003.0
23 17.06 В 3 50 км 1/0
[Ci fib]
+16.9 +12.2 74 +17 +17 тепло 1019.1 1003.1
00 18.06 В 3 50 км 1/0
[Ci fib]
+16.1 +12.3 78 +16 +16 тепло 1019.0 1002.9
01 18.06 В 3 50 км 1/0
[Ci fib]
+15.1 +12.1 82 +14 +14 тепло 1018.8 1002.7
02 18.06 В 3 50 км 1/0
[Ci fib]
+14.8 +11.9 83 +14 +14 тепло 1018.5 1002.4
03 18.06 В 3 45 км 1/0
[Ci fib]
+14.9 +11.8 82 +14 +14 по сезону 1018.4 1002.3
04 18.06 ЮВ 2 45 км 1/0
[Ci fib]
+15.2 +12.2 82 +15 +15 тепло 1018.3 1002.2
05 18.06 В 3 50 км 1/0
[Ci sp]
+18.2 +13.6 75 +19 +20 тепло 1018.1 1002.2
06 18.06 В 3 50 км 3/0
[Ci]
+21.4 +13.3 60 +24 +27 комфорт 1018.1 1002.3 +14.1 +24.6
07 18.06 В 4 50 км 3/0
[Ci fib]
+23.1 +13.8 56 +27 +31 душно 1017.8 1002.1
08 18.06 В 4 50 км 3/0
[Ci fib]
+23.6 +14.3 56 +26 +33 жарко 1017.4 1001.8
09 18.06 В 4 50 км 4/1 1500 м
[Cu hum Ci fib]
+25.9 +13.6 47 +28 +36 жарко 1016.9 1001.4
10 18.06 ЮВ 4 60 км 5/3 1500 м
[Cu hum Ci fib]
+26.3 +11.4 39 +27 +35 жарко 1016.7 1001.2
11 18.06 ЮВ 6 60 км 5/3 1500 м
[Cu hum Ci fib]
+27.0 +12.6 41 +29 +33 жарко 1016.2 1000.8
12 18.06 ЮВ 4 60 км 5/3 1500 м
[Cu hum Ci fib]
+27.7 +12.2 38 +29 +36 жарко 1015.5 1000.1
13 18.06 ЮВ 4 60 км 6/4 1500 м
[Cu med, cong Ci]
+27.9 +11.2 35 +29 +34 жарко 1014.9 999.5
14 18.06 ЮВ 5 70 км 5/3 1500 м
[Cu med, cong Ci fib]
+28.3 +11.1 34 +29 +33 жарко 1014.2 998.8
15 18.06 В 4 70 км 4/4 1500 м
[Cu med, cong]
+28.4 +11.9 36 +29 +33 жарко 1013.8 998.5
16 18.06 В 4 70 км 4/1 1500 м
[Cu med, cong Ci]
+27.9 +10.8 34 +28 +31 жарко 1013.2 997.8
17 18.06 В 5 70 км 4/1 1500 м
[Cu med, cong Ci]
+27.6 +12.3 39 +29 +30 жарко 1012.9 997.5
18 18.06 В 3 70 км 5/1 1500 м
[Cu hum Ci sp]
+25.5 +13.1 46 +27 +28 жарко 1012.9 997.4 +21.4 +28.8
19 18.06 В 3 60 км 6/1 1500 м
[Sc diur, vesp Ci sp]
+23.2 +14.6 58 +27 +27 душно 1012.8 997.2
20 18.06 В 3 60 км 8/1 1500 м
[Sc diur, vesp Ci sp]
+21.4 +13.7 61 +24 +24 комфорт 1013.1 997.4
21 18.06 В 3 60 км 8/0
[Ac und]
+20.4 +13.3 64 +23 +23 комфорт 1013.0 997.3
22 18.06 В 3 60 км 8/0
[Ac trans Ci sp]
+19.8 +13.3 66 +22 +22 комфорт 1012.8 997.0
23 18.06 ЮВ 4 60 км 9/0
[Ac und]
+21.2 +13.3 61 +24 +24 комфорт 1012.5 996.8
00 19.06 ЮВ 3 60 км 8/0
[Ac trans]
+19.7 +13.4 67 +22 +22 комфорт 1012.3 996.5
01 19.06 ЮВ 3 60 км 8/0
[Ac trans]
+19.5 +13.3 67 +21 +21 комфорт 1011.8 996.0
02 19.06 СВ 2 50 км 6/0
[Ac trans]
+19.4 +13.1 67 +21 +21 комфорт 1011.7 995.9
03 19.06 В 3 50 км 9/0
[Ac trans Ci sp]
+16.9 +13.8 82 +17 +17 тепло 1011.5 995.6
04 19.06 В 2 50 км 9/0
[Ac trans Ci sp]
+18.7 +14.1 75 +20 +20 тепло 1011.2 995.4
05 19.06 В 3 50 км 8/1 1500 м
[Cu med, cong Ac trans Ci sp]
+21.2 +14.0 63 +24 +25 комфорт 1010.8 995.2
06 19.06 ЮВ 3 45 км 6/3 600 м
[Cu Sc Ac cast Ci fib]
+22.7 +15.2 63 +27 +29 душно 1010.6 995.0 +16.8 +25.3
07 19.06 Ю 3 45 км 9/1 1500 м
[Sc Ac cast Ci]
+24.2 +15.0 56 +27 +30 жарко 1010.4 994.9
08 19.06 Ю 3 45 км 9/0
[Ac cast Ci]
+25.7 +15.2 52 +29 +35 душно 1009.9 994.5
09 19.06 Ю 2 40 км 9/0
[Ac cast Ci fib]
+27.5 +14.9 46 +30 +41 жарко 1009.6 994.3
10 19.06 ЮВ 2 40 км 9/1 1500 м
[Cu hum Ac cast Ci sp]
+28.9 +13.9 40 +31 +39 жарко 1009.1 993.9
11 19.06 В 2 45 км 9/3 2000 м
[Cu med, cong Ci fib]
+30.9 +13.2 34 +32 +42 жарко 1008.6 993.5
12 19.06 ЮЗ 2 45 км 9/5 2000 м
[Cu med, cong Ci fib]
+31.0 +12.0 31 +31 +39 жарко 1008.5 993.4
13 19.06 ЮЗ 4 45 км осадки на расстоянии 9/6 2000 м
[Cb calv Ci fib]
+30.7 +9.7 27 +30 +34 жарко 1008.1 993.0
14 19.06 З 4 55 км гроза без осадков {ливн. осадки} 9/8 1500 м
[Cb cap Ci fib]
+27.8 +12.6 39 +29 +31 жарко 1007.9 992.6
15 19.06 ЮВ 5 50 км в посл. час гроза {ливн. осадки} 6/4 1500 м
[Cb cap Ac trans Ci fib]
+29.5 +12.9 36 +31 +33 жарко 1007.6 992.4 0.0
16 19.06 ЮВ 3 50 км 4/1 2000 м
[Cu med, cong Ac trans Ci sp]
+30.4 +13.3 35 +32 +35 жарко 1006.7 991.6
17 19.06 ЮВ 4 50 км 4/1 1500 м
[Cu med, cong Ac trans Ci sp]
+29.9 +13.6 37 +31 +33 жарко 1006.5 991.4
18 19.06 ЮВ 3 60 км {гроза, ливн. осадки} 5/3 1500 м
[Cb calv Ac und Ci sp]
+28.6 +12.0 36 +30 +30 жарко 1006.6 991.4 +22.6 +32.3 0.0
19 19.06 Ю 4 60 км 6/1 1500 м
[Cb calv Ac und]
+26.5 +13.4 44 +28 +28 жарко 1006.9 991.6
20 19.06 Ю 2 50 км 5/1 1500 м
[Cb calv Ac trans]
+23.5 +13.7 54 +26 +26 жарко 1007.5 992.0

 

Местоположение метеостанции Лейпциг (Германия): широта 51.42 долгота 12.23 высота над уровнем моря 133 м.

В архиве по умолчанию представлена погода в Лейпциге за последнюю неделю. Архивные данные за месяц целиком и за предыдущие месяцы, начиная с января 2011 года, Вы можете получить, выбрав интересующий диапазон дат из раскрывающегося списка и нажав кнопку "Ввод!".


*Определитесь, кто Вы:
робот инопланетянин человек

Внимание! Время в таблицах - всемирное. Для получения местного времени необходимо прибавить поправку, которая равна 1 ч.

Смотрите также архив погоды в соседних городах и на ближайших метеорологических станциях:

Погода в Лейпциг-Зюде (Германия) (17 км)
Погода в Остерфельде (Германия) (43 км)
Погода в Виттенберге (Германия) (59 км)
Погода в Аэропорту Gera-Leumnitz (Германия) (60 км)
Погода в Ошаце (Германия) (62 км)
Погода в Артерне (Германия) (65 км)
Погода на Базе ВВС Holzdorf (Германия) (76 км)
Погода в Визенбурге (Германия) (80 км)
Погода в Харцгероде (Германия) (80 км)
Погода в Хемнице (Германия) (82 км)

Пояснения к столбцам:

Ветер - указаны скорость ветра в м/с - средняя за 10 мин, порывы в срок и между сроками (в фигурных скобках) и направление, откуда дует ветер: С - северный, СВ - северо-восточный, В - восточный, ЮВ - юго-восточный, Ю - южный, ЮЗ - юго-западный, З - западный, СЗ - северо-западный.
Видимость - горизонтальная дальность видимости в метрах или километрах. При видимости от 1 до 10 км при отсутствии осадков обычно наблюдается дымка, при ухудшении видимости до 1 км и менее - туман. В сухую погоду видимость может ухудшаться дымом, пылью или мглою.
Явления - указаны атмосферные явления, наблюдавшиеся в срок или в последний час перед сроком; фигурными скобками обозначены явления, наблюдавшиеся между сроками (за 1-3 часа до срока); квадратными скобками обозначены град или гололедные отложения с указанием их диаметра в мм.
Облачность - указаны через наклонную черту общая и нижняя облачность в баллах и высота нижней границы облаков в метрах; квадратными скобками обозначены формы облаков: Ci - перистые, Cs - перисто-слоистые, Cc - перисто-кучевые, Ac - высококучевые, As - высокослоистые, Sc - слоисто-кучевые, Ns - слоисто-дождевые, Cu - кучевые, Cb - кучево-дождевые. Подробнее классификацию облаков см. в Атласе облаков (PDF).
T - Температура воздуха - температура, измеренная на высоте 2 м над землей.
Td - Температура точки росы - температура, при понижении до которой содержащийся в воздухе водяной пар достигнет насыщения.
f - Относительная влажность воздуха - влажноcть воздуха, измеренная на высоте 2 м над землей.
Te - Эффективная температура - температура, которую ощущает одетый по сезону человек в тени. Характеристика душности погоды. При расчете учитывается влияние влажности воздуха и скорости ветра на теплоощущения человека.
Tes - Эффективная температура на солнце - температура, которую ощущает человек, с поправкой на солнечный нагрев. Характеристика знойности погоды. Зависит от высоты солнца над горизонтом, облачности и скорости ветра. Ночью, в пасмурную погоду, а также при ветре 12 м/с и более поправка равна нулю.
P - Атмосферное давление - приведенное к уровню моря атмосферное давление.
Po - Атмосферное давление - измеренное на уровне метеостанции атмосферное давление.
Tmin - Минимальная температура - минимум температуры воздуха на высоте 2 м над землей.
Tmax - Максимальная температура - максимум температуры воздуха на высоте 2 м над землей.
R - Количество осадков - Количество выпавших осадков за период времени, мм. При наведении курсора мыши на число - период времени, за который выпало указанное количество осадков.
R24 - Количество осадков - Количество выпавших осадков за 24 часа, мм.
S - Снежный покров - Высота снежного покрова, см. При наведении курсора мыши на число - состояние снежного покрова и степень покрытия местности в баллах.